(48) Doris

Orbital Elements

The following orbital elements are taken from MPC 35405:
    (48) Doris
Epoch 2007 Oct. 27.0 TT = JDT 2454400.5                 Goffin
M  30.20873              (2000.0)            P               Q
n   0.17970459     Peri.  257.46734     +0.15322085     -0.98816388
a   3.1100206      Node   183.74318     +0.94518606     +0.14874878
e   0.0747882      Incl.    6.55377     +0.28835166     +0.03749600
P   5.48           H    6.90          G   0.15           U   0
From 712 observations at 88 oppositions, 1857-1999, mean residual 0".55.
An explanation of the orbital elements is available.

These orbital elements are also available in forms suitable for loading into a number of popular planetarium-type software programs.


Ephemeris

The following ephemeris is at intervals of five days. A daily ephemeris covering the same time interval is also available.

Personalized ephemerides for this object (and others) can be generated using the MPES.

Date    TT    R. A. (2000) Decl.     Delta      r     Elong.  Phase     V
2008 01 01    09 31.15   +07 00.7    2.154    2.946   136.5    13.3    11.7
2008 01 06    09 29.28   +07 06.2    2.111    2.949   141.9    11.9    11.6
2008 01 11    09 26.90   +07 15.5    2.074    2.951   147.5    10.3    11.5
2008 01 16    09 24.04   +07 28.4    2.043    2.954   153.1     8.7    11.4
2008 01 21    09 20.78   +07 44.6    2.018    2.957   158.8     6.9    11.3
2008 01 26    09 17.21   +08 03.8    2.000    2.960   164.3     5.2    11.2
2008 01 31    09 13.42   +08 25.6    1.989    2.963   169.3     3.5    11.1
2008 02 05    09 09.51   +08 49.5    1.986    2.966   172.6     2.5    11.0
2008 02 10    09 05.59   +09 14.9    1.989    2.969   171.7     2.8    11.0
2008 02 15    09 01.79   +09 41.1    2.000    2.972   167.4     4.2    11.1
2008 02 20    08 58.21   +10 07.6    2.019    2.975   162.2     5.8    11.3
2008 02 25    08 54.96   +10 33.7    2.044    2.978   156.6     7.6    11.4
2008 03 01    08 52.10   +10 58.9    2.075    2.981   151.1     9.3    11.5
2008 03 06    08 49.72   +11 22.8    2.113    2.985   145.5    10.8    11.6
2008 03 11    08 47.86   +11 45.0    2.157    2.988   140.1    12.3    11.7
2008 03 16    08 46.57   +12 05.2    2.205    2.991   134.8    13.6    11.8
2008 03 21    08 45.85   +12 23.1    2.259    2.994   129.7    14.8    11.9

Back to Bright Minor Planets

Astronomical Headlines Index

MPC